YO6IKB-10 Weather Reports


Display with metric or nautical units.
time (UTC)temp
F
wind
direction
speed
MPH
gust
MPH
rain 1hr
in
rain 24hr
in
rain mn
in
humidity
%
barometer
mb
20260903025202 54 292 0.0 2.0 0.00 0.00 0.00 82 1016.2
20260903024701 55 292 1.0 2.0 0.00 0.00 0.00 82 1016.1
20260903024201 55 292 0.0 0.0 0.00 0.00 0.00 82 1016.0
20260903023701 55 292 0.0 0.0 0.00 0.00 0.00 81 1016.0
20260903023200 55 292 0.0 1.0 0.00 0.00 0.00 81 1016.1
20260903022700 55 292 1.0 1.0 0.00 0.00 0.00 81 1016.2
20260903022200 55 292 1.0 1.0 0.00 0.00 0.00 81 1016.2
20260903021700 55 292 0.0 1.0 0.00 0.00 0.00 81 1016.2
20260903021159 55 292 0.0 0.0 0.00 0.00 0.00 81 1016.3
20260903020659 55 315 0.0 0.0 0.00 0.00 0.00 81 1016.3
20260903020159 55 292 0.0 0.0 0.00 0.00 0.00 81 1016.5
20260903015658 55 135 0.0 0.0 0.00 0.00 0.00 82 1016.4
20260903015158 55 292 0.0 0.0 0.00 0.00 0.00 82 1016.4
20260903014658 55 292 0.0 0.0 0.00 0.00 0.00 82 1016.3
20260903014157 56 292 0.0 0.0 0.00 0.00 0.00 82 1016.4
20260903013657 56 292 0.0 0.0 0.00 0.00 0.00 82 1016.3
20260903013157 55 292 0.0 1.0 0.00 0.00 0.00 82 1016.4
20260903012657 56 292 0.0 1.0 0.00 0.00 0.00 82 1016.3
20260903012156 55 292 1.0 1.0 0.00 0.00 0.00 82 1016.4
20260903011656 55 292 0.0 0.0 0.00 0.00 0.00 82 1016.3
20260903011156 176 292 0.0 1.0 0.00 0.00 0.00 82 1016.3
20260903010655 55 292 0.0 0.0 0.00 0.00 0.00 81 1016.3
20260903010155 55 292 0.0 0.0 0.00 0.00 0.00 81 1016.4
20260903005655 55 292 0.0 2.0 0.00 0.00 0.00 81 1016.3
20260903005155 55 292 2.0 2.0 0.00 0.00 0.00 80 1016.3
20260903004654 55 292 0.0 0.0 0.00 0.00 0.00 80 1016.3
20260903004154 56 292 0.0 0.0 0.00 0.00 0.00 79 1016.3
20260903003654 55 292 0.0 0.0 0.00 0.00 0.00 79 1016.3
20260903003153 56 292 0.0 1.0 0.00 0.00 0.00 79 1016.4
20260903002653 56 292 1.0 1.0 0.00 0.00 0.00 79 1016.4
20260903002153 56 292 0.0 2.0 0.00 0.00 0.00 79 1016.4
20260903001652 56 292 2.0 4.0 0.00 0.00 0.00 79 1016.5
20260903001152 56 292 2.0 2.0 0.00 0.00 0.00 79 1016.5
20260903000652 56 292 1.0 3.0 0.00 0.00 0.00 80 1016.5
20260903000152 56 337 0.0 2.0 0.00 0.00 0.00 80 1016.3
20260902235651 57 337 2.0 3.0 0.00 0.00 0.00 80 1016.4
20260902235151 57 337 0.0 3.0 0.00 0.00 0.00 80 1016.2
20260902234651 57 0 0.0 2.0 0.00 0.00 0.00 80 1016.2
20260902234150 57 337 1.0 3.0 0.00 0.00 0.00 79 1016.3
20260902233650 57 337 2.0 3.0 0.00 0.00 0.00 79 1016.2
20260902233150 57 22 0.0 2.0 0.00 0.00 0.00 79 1016.1
20260902232650 58 67 0.0 1.0 0.00 0.00 0.00 79 1016.1
20260902232149 58 67 0.0 0.0 0.00 0.00 0.00 79 1016.2
20260902231649 58 67 0.0 1.0 0.00 0.00 0.00 79 1016.2
20260902231149 58 67 0.0 2.0 0.00 0.00 0.00 79 1016.2
20260902230648 58 67 1.0 2.0 0.00 0.00 0.00 79 1016.1
20260902230148 58 0 0.0 2.0 0.00 0.00 0.00 78 1016.2
20260902225648 59 0 1.0 1.0 0.00 0.00 0.00 77 1016.3
20260902225147 59 337 0.0 0.0 0.00 0.00 0.00 77 1016.3
20260902224647 59 337 0.0 0.0 0.00 0.00 0.00 77 1016.3